Find Starlink 37205

NORAD ID: 68332 Int'l Des: 2026-059 Owner: SPXS Country: US Constellation: starlink operational
LEOCIRCULAR

現在のビュー

3D地球を読み込み中...

About Starlink 37205

Starlink 37205 (NORAD 68332) is a starlink constellation satellite (v2 mini) launched Mar 22, 2026 by SPXS of US. It operates in LEO, CIRCULAR orbit with a mass of 575.00 kg.

Starlink 37205について

説明を読み込み中...

次回通過

Passes for default location (London). Set your location on the main map for personalized predictions.

高度履歴

Loading altitude history...

軌道要素

1 68332U 26059M 26171.43386557 .00008388 00000-0 29497-3 0 9993
2 68332 53.1579 231.2202 0001090 77.9680 282.1442 15.30203352 13903
Epoch: Jun 20, 2026 • Age: 34 hours

現在のステータス

高度 477.2 km
速度 7.63 km/s
衛星直下点 34.81°N, 164.75°E
打ち上げ日 Mar 22, 2026
運用期間 0.2 years
タイプ internet

技術仕様

分類 Payload
質量 575.00 kg
乾燥質量 530.00 kg
総質量 575.00 kg
長さ 0.30 m
直径 4.10 m
スパン 29.00 m
形状 Box + pan
製造者 SPXS
バスタイプ Starlink V2MO
フェーズステータス In Orbit
所有者/国 SPXS/US

Most Searched